{"data":{"norad_id":65465,"intl_designator":"2025-195H","name":"STARLINK-35169","alt_names":[],"object_type":"PAYLOAD","status":"ACTIVE","operator":null,"country":"US","launch_date":"2025-09-03","launch_site_code":"AFETR","launch_vehicle":null,"mission":null,"orbit_class":"UNKNOWN","rcs_meters":null,"size_class":null,"mass_kg":null,"dimensions":null,"purposes":["comms"],"wikipedia_slug":null,"has_3d_model":false,"image_url":null,"decayed_at":null,"tle_current":{"epoch":"2026-09-20T00:20:07.176480Z","epoch_age_seconds":156951,"freshness":"FRESH","line1":"1 65465U 25195H   26263.01397195  .00023127  00000+0  69331-3 0  9991","line2":"2 65465  53.1581  72.1606 0001719  74.1398 285.9794 15.34408842 59796","mean_motion":15.34408842,"eccentricity":0.0001719,"inclination_deg":53.1581,"raan_deg":72.1606,"arg_perigee_deg":74.1398,"mean_anomaly_deg":285.9794,"bstar":0.00069331,"rev_number":5979,"period_min":93.847217285522,"perigee_km":461.50102412621,"apogee_km":463.85289596567,"semimajor_km":6840.8139600459,"source":"CELESTRAK","updated_at":"2026-09-21T09:00:35.615148Z"}}}